Location: Rounton
(54.4000°N, 1.3500°W)
Time: 07:49:11
(UTC+00:00)

Vanguard 1 Rocket - Pass Details

Date: 08 December 2021
Orbit: 651 x 4224 km, 34.3° (Epoch: 19 January)

Event Time Altitude Azimuth Distance (km) Brightness Sun altitude
Rises 01:24:44 0° 210° (SSW) 4,154 - -54.3°
Reaches altitude 10° 01:27:55 10° 194° (SSW) 3,593 - -54.0°
Maximum altitude 01:34:47 22° 148° (SSE) 3,592 - -53.4°
Exits shadow 01:38:52 19° 126° (SE) 4,261 10.7 -53.0°
Drops below altitude 10° 01:45:07 10° 106° (ESE) 5,673 11.6 -52.4°
Sets 01:52:09 0° 95° (E) 7,359 12.4 -51.7°
